THOR ABLESTAR DEB, 1435

Orbit data source: Space-Track

THOR ABLESTAR DEB, 1435 is space debris in LEO originally from a launch on Thu, 24 Jun 1965 UTC launched from the Air Force Western Test Range (AFWTR). Debris objects in space refer to the collection of defunct objects orbiting the Earth. Examples of debris include non-operational satellites, rocket bodies, and fragments generated from explosions, collisions, or faulty payload assembly.

Loading next visibility...
Identifier
1435, 1965-048D
Orbit
LEO
Last TLE update
2 days ago
Origin
Manufacturer
Unknown
Mission
Spacecraft
Bus & Motor
Unknown
Mass
Unknown
Launch date (UTC)
1965-06-24 (60 years ago)
Launch vehicle
Unknown
Launch site
Air Force Western Test Range (AFWTR)
Object type
Payload
Rocket body
Debris
Shape & HBR
Unknown
Radar Cross Section
Small (<0.1 m²)

Expand to show TLE details & history

TLE from 2 days ago
0 THOR ABLESTAR DEB
1 01435U 65048D   25118.94812507  .00001285  00000-0  13690-2 0  9996
2 01435  89.8857 295.0869 0061119 119.6904  39.1378 13.72711253970129
Epoch: 2025-04-28T22:45Z
Definitive object data (Epoch: 2025-04-28T22:45:18.006Z)
Latitude
20.73225°
Longitude
-83.43599°
Altitude
957.672 km
Speed
7.392 km/s
True Right ascension
07h 40m 10s
True Declination
20° 37' 18"
Sunlit
Object was in daylight at TLE epoch
Visualization TLE readout
Latitude
17.83129°
Longitude
-83.44787°
Altitude
961.436 km
Speed
7.388 km/s
Apparent Right ascension
07h 25m 29s
Apparent Declination
-8° 48' 15"
Sunlit
Object is in daylight
Visualization observer readout
Local Sidereal Time
19:04:34
Azimuth
350.069° N
Elevation
-58.54°
Doppler factor
1
Orbital elements
Apogee altitude
1,031.884 km
Perigee altitude
941.856 km
Semi-major axis
7,365.007 km
Eccentricity
0.0061119
Inclination
89.8857°
RAAN
295.0869°
Arg. of periapsis
119.6904°
True anomaly
39.5825°
Mean anomaly
39.1378°
Eccentric anomaly
39.35988°
Mean motion
3.43387 °/min
BSTAR
0.001369
Orbital period
104.84 mins
Loading maneuver chart data...
Loading SW <> Apogee altitude chart data...

THOR ABLESTAR DEB Visibility forecast

Observer location: undefined°, undefined°

Span
Click to sort rows by Start time (UTC) header in descending order
Start Az.
Max El. time (UTC)
Max El. Az.
Max El.
End time (UTC)
End Az.
11 mins2025-04-30 12:34:23.942Z199.354° SSW2025-04-30 12:40:23.942Z282.693° WNW36.526°2025-04-30 12:45:23.942Z344.542° N
10 mins2025-04-30 23:34:23.942Z15.249° NNE2025-04-30 23:38:23.942Z72.634° E39.469°2025-04-30 23:44:23.942Z166.488° S
6 mins2025-05-01 01:20:23.942Z317.389° NNW2025-05-01 01:23:23.942Z280.974° WNW18.716°2025-05-01 01:26:23.942Z247.776° W
10 mins2025-05-01 11:20:23.942Z145.662° SSE2025-05-01 11:24:23.942Z92.736° ESE34.849°2025-05-01 11:30:23.942Z11.633° NNE
|